[[{"header":{"parameterUnit":"m.s-1","parameterCategory":1,"la1":30.2991,"la2":30.254,"lo1":-89.0895,"lo2":-89.0444,"dy":0.0017,"dx":0.0017,"nx":28,"ny":28,"refTime":"2024-10-20T21:00:00:Z","depth":0,"parameterNumber":2,"parameterNumberName":"U-component_of_WINDS"},"data":[0,0,0,0,0,0,0,0,0,0,0,0,0,0,0,0,0,0,0,0,0,0,0,0,0,0,0,0,0,0,0,0,0,0,0,0,0,0,0,0,0,0,0,0,0,0,0,0,0,0,0,0,0,0,0,0,0,0,-3.243,-3.2429,0,-3.2371,-3.237,-3.2369,-3.2278,-3.2276,-3.2275,-3.2273,-3.2215,-3.2215,-3.2215,0,0,0,0,0,0,0,0,0,0,0,0,0,-3.2467,-3.2467,-3.243,-3.2429,-3.2428,-3.2371,-3.237,-3.2369,-3.2278,-3.2276,-3.2274,-3.2272,-3.2215,-3.2215,-3.2215,0,0,0,0,0,0,0,0,0,0,0,0,0,-3.2434,-3.2466,-3.243,-3.2376,-3.237,-3.2371,-3.237,-3.2369,-3.2279,-3.2276,-3.2274,-3.2271,-3.2215,-3.2215,-3.2215,-3.2264,0,0,-3.2215,-3.2215,0,0,0,0,0,0,0,0,-3.2436,-3.2432,-3.2385,-3.238,-3.2373,-3.2329,-3.2362,-3.2334,-3.2279,-3.2313,-3.2273,-3.227,-3.2255,-3.2252,-3.2246,-3.2261,-3.2259,-3.2215,-3.2215,-3.2215,-3.2215,0,0,0,0,0,0,0,-3.2438,-3.2434,-3.2406,-3.2384,-3.2377,-3.2356,-3.2348,-3.2356,-3.2299,-3.231,-3.2303,-3.2298,-3.2251,-3.2246,-3.2244,-3.2258,-3.2215,-3.2215,-3.2215,-3.2215,-3.2314,-3.2317,0,0,0,0,0,0,-3.2448,-3.2437,-3.2408,-3.2405,-3.2399,-3.2357,-3.2349,-3.2346,-3.2299,-3.2289,-3.23,-3.2294,-3.2247,-3.2244,-3.2242,-3.2298,-3.2215,-3.2215,-3.2215,-3.2312,-3.2315,-3.2318,0,0,0,0,0,0,-3.2449,-3.2446,-3.2411,-3.2419,-3.2413,-3.2359,-3.2357,-3.2346,-3.234,-3.2291,-3.228,-3.2305,-3.2245,-3.2242,-3.226,-3.2295,-3.2215,-3.2215,-3.2309,-3.2313,-3.2316,-3.2411,0,0,0,0,0,0,-3.2451,-3.2447,-3.2464,-3.242,-3.2413,-3.2429,-3.2359,-3.2347,-3.234,-3.2332,-3.2292,-3.2284,-3.2243,-3.226,-3.226,-3.2293,-3.2215,-3.2305,-3.231,-3.2315,-3.2404,-3.2418,-3.2429,0,0,0,0,0,-3.2452,-3.2493,-3.2466,-3.2463,-3.2433,-3.2431,-3.2427,-3.2379,-3.2344,-3.2361,-3.233,-3.2285,-3.2291,-3.2263,-3.2261,-3.2296,-3.2303,-3.2309,-3.2315,-3.2399,-3.2415,-3.2429,0,0,0,0,0,0,-3.2543,-3.2486,-3.2455,-3.2483,-3.2463,-3.2416,-3.2436,-3.2397,-3.2387,-3.2379,-3.2321,-3.2313,-3.2339,-3.2319,-3.2289,-3.2342,-3.229,-3.2296,-3.2355,-3.237,-3.2382,-3.2386,-3.2215,0,0,0,0,0,-3.2566,-3.2569,-3.2519,-3.2549,-3.254,-3.249,-3.2488,-3.2453,-3.2429,-3.2421,-3.239,-3.237,-3.2368,-3.2367,-3.2362,-3.2401,-3.2393,-3.2424,-3.2436,-3.2447,-3.2453,-3.2475,-3.2489,-3.2337,-3.2337,-3.2337,0,0,-3.2614,-3.2584,-3.2589,-3.2566,-3.2546,-3.2552,-3.2484,-3.2491,-3.2495,-3.2422,-3.2437,-3.2415,-3.2389,-3.2419,-3.243,-3.2402,-3.2493,-3.2454,-3.2463,-3.2463,-3.2482,-3.2497,-3.2509,-3.2342,-3.2341,-3.234,0,0,-3.2705,-3.2681,-3.2704,-3.2686,-3.2657,-3.2624,-3.263,-3.2589,-3.2571,-3.2586,-3.2532,-3.2536,-3.2533,-3.2517,-3.2509,-3.2597,-3.2556,-3.2597,-3.2661,-3.2683,-3.2695,-3.2705,-3.2739,-3.2751,-3.2603,-3.2603,-3.2603,0,-3.2768,-3.2773,-3.2721,-3.2733,-3.2725,-3.2659,-3.2683,-3.2668,-3.264,-3.2637,-3.2606,-3.2602,-3.258,-3.2606,-3.2628,-3.2623,-3.2629,-3.2601,-3.2697,-3.2707,-3.2716,-3.2747,-3.276,-3.2609,-3.2608,-3.2607,-3.2607,0,-3.2854,-3.2858,-3.288,-3.2855,-3.285,-3.2867,-3.2819,-3.2821,-3.2787,-3.2758,-3.2776,-3.2747,-3.2736,-3.274,-3.2706,-3.2762,-3.2747,-3.2708,-3.2654,-3.2737,-3.2765,-3.2777,-3.2616,-3.2614,-3.2613,-3.2611,0,0,-3.2998,-3.2945,-3.2954,-3.2943,-3.2907,-3.291,-3.2926,-3.2915,-3.2919,-3.2902,-3.2915,-3.2915,-3.288,-3.2871,-3.2835,-3.2855,-3.2929,-3.2813,-3.2812,-3.2838,-3.2992,-3.3022,-3.3037,-3.2902,-3.2904,-3.2905,-3.2995,0,-3.3083,-3.3106,-3.3061,-3.3096,-3.3101,-3.304,-3.3054,-3.3035,-3.3009,-3.301,-3.2981,-3.2983,-3.2935,-3.293,-3.2946,-3.2917,-3.2959,-3.2909,-3.2916,-3.2916,-3.2925,-3.3051,-3.3083,-3.3168,-3.3005,-3.3007,-3.3008,0,-3.3183,-3.3172,-3.3208,-3.3173,-3.3173,-3.3187,-3.3175,-3.3176,-3.3154,-3.3134,-3.3125,-3.3084,-3.3099,-3.3048,-3.3069,-3.3037,-3.3037,-3.3023,-3.3025,-3.3025,-3.2968,-3.3056,-3.3194,-3.3208,-3.3025,-3.3024,-3.3022,0,-3.3288,-3.3282,-3.3303,-3.3295,-3.3253,-3.3265,-3.3249,-3.3224,-3.3221,-3.3211,-3.3209,-3.3201,-3.3197,-3.3193,-3.3152,-3.3118,-3.318,-3.3124,-3.3165,-3.3167,-3.3182,-3.3181,-3.3323,-3.318,-3.318,-3.3179,-3.3179,0,-3.3387,-3.3412,-3.3349,-3.3363,-3.3389,-3.3338,-3.3366,-3.3344,-3.3323,-3.3332,-3.3279,-3.3289,-3.3233,-3.3238,-3.3206,-3.323,-3.3229,-3.3214,-3.3206,-3.322,-3.3222,-3.322,-3.3213,-3.3183,-3.3182,-3.3181,-3.3181,0,-3.3508,-3.3467,-3.3486,-3.3446,-3.3437,-3.3459,-3.3425,-3.3437,-3.3408,-3.3421,-3.3421,-3.3376,-3.3379,-3.3338,-3.3332,-3.3311,-3.3351,-3.3331,-3.3358,-3.3353,-3.3397,-3.3394,-3.3544,-3.3562,-3.3406,-3.3407,-3.3408,0,-3.3574,-3.3592,-3.3555,-3.3557,-3.3543,-3.3547,-3.3545,-3.3496,-3.3496,-3.3474,-3.3489,-3.3487,-3.3483,-3.3492,-3.346,-3.3456,-3.3437,-3.349,-3.3436,-3.3451,-3.344,-3.344,-3.3443,-3.3501,-3.3503,-3.3505,-3.3506,0,-3.3698,-3.3677,-3.3675,-3.3667,-3.3666,-3.3657,-3.3644,-3.365,-3.3597,-3.3599,-3.3602,-3.3599,-3.3595,-3.3595,-3.3586,-3.357,-3.3531,-3.3523,-3.3533,-3.3548,-3.3564,-3.3558,-3.3391,-3.352,-3.3519,-3.3518,-3.3517,-3.3516,-3.3794,-3.3808,-3.3785,-3.3785,-3.3771,-3.3762,-3.3772,-3.3745,-3.3746,-3.3738,-3.3709,-3.3718,-3.3698,-3.3681,-3.367,-3.3677,-3.3652,-3.3665,-3.3669,-3.3674,-3.3683,-3.3562,-3.3675,-3.3675,-3.3674,-3.3674,-3.3674,0,-3.3916,-3.3899,-3.39,-3.3885,-3.3886,-3.3848,-3.3833,-3.3837,-3.3845,-3.3829,-3.3827,-3.3832,-3.3833,-3.3802,-3.3799,-3.3811,-3.3793,-3.3812,-3.3811,-3.3809,-3.3705,-3.3697,-3.3827,-3.3827,-3.3827,-3.3827,-3.3827,-3.3827,-3.398,-3.4002,-3.398,-3.3996,-3.3978,-3.3985,-3.3981,-3.3973,-3.3961,-3.3968,-3.3968,-3.3948,-3.3927,-3.3923,-3.3923,-3.3914,-3.3917,-3.3943,-3.3928,-3.3831,-3.3816,-3.3802,-3.3795,-3.3943,-3.3943,-3.4032,-3.4033,-3.4034]},{"header":{"parameterUnit":"m.s-1","parameterCategory":1,"la1":30.2991,"la2":30.254,"lo1":-89.0895,"lo2":-89.0444,"dy":0.0017,"dx":0.0017,"nx":28,"ny":28,"refTime":"2024-10-20T21:00:00:Z","depth":0,"parameterNumber":3,"parameterNumberName":"V-component_of_WINDS"},"data":[0,0,0,0,0,0,0,0,0,0,0,0,0,0,0,0,0,0,0,0,0,0,0,0,0,0,0,0,0,0,0,0,0,0,0,0,0,0,0,0,0,0,0,0,0,0,0,0,0,0,0,0,0,0,0,0,0,0,-0.4929,-0.4929,0,-0.4954,-0.4954,-0.4955,-0.4923,-0.4922,-0.492,-0.4919,-0.4947,-0.4949,-0.495,0,0,0,0,0,0,0,0,0,0,0,0,0,-0.4855,-0.4857,-0.4929,-0.4929,-0.493,-0.4954,-0.4954,-0.4955,-0.4923,-0.4922,-0.492,-0.4919,-0.4946,-0.4948,-0.4951,0,0,0,0,0,0,0,0,0,0,0,0,0,-0.4885,-0.4857,-0.4929,-0.4917,-0.4916,-0.4954,-0.4954,-0.4955,-0.4923,-0.4922,-0.492,-0.4918,-0.4946,-0.4948,-0.4951,-0.5003,0,0,-0.4959,-0.496,0,0,0,0,0,0,0,0,-0.4883,-0.4887,-0.4918,-0.4918,-0.4917,-0.4933,-0.4938,-0.4971,-0.4924,-0.4921,-0.4919,-0.4917,-0.4944,-0.4947,-0.4955,-0.5004,-0.5005,-0.496,-0.4961,-0.4962,-0.4963,0,0,0,0,0,0,0,-0.4881,-0.4886,-0.4939,-0.4919,-0.4918,-0.491,-0.4913,-0.4944,-0.4942,-0.4921,-0.4918,-0.4922,-0.4943,-0.4953,-0.4956,-0.5006,-0.4959,-0.4962,-0.4964,-0.4965,-0.5099,-0.5101,0,0,0,0,0,0,-0.488,-0.4885,-0.4938,-0.494,-0.4895,-0.4913,-0.4916,-0.493,-0.4941,-0.4941,-0.4923,-0.492,-0.4949,-0.4953,-0.4957,-0.5019,-0.4962,-0.4965,-0.4966,-0.5097,-0.5099,-0.5101,0,0,0,0,0,0,-0.4879,-0.4885,-0.4937,-0.4912,-0.4918,-0.4916,-0.4933,-0.4931,-0.4941,-0.4943,-0.4943,-0.4933,-0.4948,-0.4953,-0.4992,-0.502,-0.4966,-0.4969,-0.5095,-0.5098,-0.51,-0.5145,0,0,0,0,0,0,-0.4877,-0.4885,-0.4904,-0.4912,-0.4919,-0.4972,-0.4934,-0.4933,-0.4945,-0.4942,-0.4953,-0.4953,-0.4947,-0.4988,-0.4994,-0.5023,-0.4971,-0.5092,-0.5096,-0.5099,-0.5141,-0.5149,-0.5156,0,0,0,0,0,-0.4874,-0.4916,-0.4906,-0.4912,-0.4943,-0.4973,-0.4977,-0.4969,-0.4948,-0.4968,-0.4969,-0.4953,-0.5015,-0.4992,-0.4999,-0.5029,-0.5091,-0.5095,-0.5099,-0.5138,-0.5147,-0.5155,0,0,0,0,0,0,-0.4913,-0.4917,-0.4905,-0.4951,-0.4962,-0.4968,-0.4993,-0.4979,-0.4997,-0.4993,-0.4982,-0.4985,-0.5027,-0.5031,-0.5005,-0.508,-0.5049,-0.5055,-0.5076,-0.5085,-0.5093,-0.5092,-0.4973,0,0,0,0,0,-0.4926,-0.495,-0.4952,-0.4992,-0.4998,-0.4995,-0.5007,-0.5,-0.5011,-0.5016,-0.502,-0.5032,-0.5054,-0.5069,-0.509,-0.514,-0.5143,-0.5164,-0.5171,-0.5177,-0.5184,-0.5212,-0.5222,-0.5116,-0.5116,-0.5116,0,0,-0.4955,-0.496,-0.4976,-0.5,-0.5008,-0.5033,-0.4999,-0.5027,-0.5046,-0.502,-0.5058,-0.5061,-0.5073,-0.5119,-0.5139,-0.5124,-0.5213,-0.5183,-0.5188,-0.5191,-0.5217,-0.5227,-0.5236,-0.5119,-0.5118,-0.5118,0,0,-0.5021,-0.5027,-0.5061,-0.5069,-0.5081,-0.5078,-0.5086,-0.5094,-0.5095,-0.5132,-0.5113,-0.5135,-0.5174,-0.5184,-0.5194,-0.5263,-0.5249,-0.5269,-0.531,-0.5337,-0.5345,-0.5353,-0.5379,-0.5389,-0.5275,-0.5275,-0.5275,0,-0.5056,-0.5093,-0.5081,-0.5111,-0.5122,-0.5098,-0.5134,-0.5142,-0.516,-0.5169,-0.5151,-0.5199,-0.5206,-0.5254,-0.5271,-0.5279,-0.5289,-0.527,-0.5345,-0.5352,-0.5359,-0.5384,-0.5394,-0.5278,-0.5277,-0.5277,-0.5277,0,-0.5136,-0.5162,-0.5189,-0.5206,-0.522,-0.5253,-0.5246,-0.5262,-0.5252,-0.5251,-0.529,-0.5296,-0.5319,-0.5328,-0.532,-0.5375,-0.5366,-0.5346,-0.5316,-0.5372,-0.5396,-0.5405,-0.5282,-0.5281,-0.528,-0.5279,0,0,-0.523,-0.5239,-0.525,-0.5258,-0.5268,-0.5288,-0.5319,-0.534,-0.5355,-0.5367,-0.5394,-0.5426,-0.5409,-0.542,-0.5412,-0.5436,-0.5492,-0.5414,-0.5414,-0.543,-0.5556,-0.5572,-0.5583,-0.5481,-0.5483,-0.5484,-0.5555,0,-0.5298,-0.5352,-0.5342,-0.5395,-0.5419,-0.5396,-0.5423,-0.5433,-0.5432,-0.5453,-0.5452,-0.5476,-0.545,-0.5457,-0.5479,-0.548,-0.5517,-0.5475,-0.5508,-0.5509,-0.5509,-0.5595,-0.5613,-0.568,-0.5564,-0.5566,-0.5567,0,-0.5386,-0.5401,-0.5457,-0.5463,-0.5473,-0.5498,-0.5516,-0.5536,-0.5546,-0.5544,-0.5556,-0.5543,-0.5575,-0.5542,-0.5586,-0.5557,-0.557,-0.5572,-0.5575,-0.558,-0.5544,-0.5606,-0.5701,-0.5712,-0.5581,-0.558,-0.5579,0,-0.5452,-0.5486,-0.5524,-0.5531,-0.5539,-0.5557,-0.5561,-0.557,-0.5583,-0.5599,-0.5608,-0.5627,-0.5638,-0.5654,-0.5646,-0.5623,-0.5693,-0.5658,-0.5693,-0.5694,-0.5712,-0.5712,-0.5814,-0.5715,-0.5715,-0.5715,-0.5715,0,-0.553,-0.5566,-0.5554,-0.5578,-0.5617,-0.5603,-0.5643,-0.5644,-0.5652,-0.5676,-0.5656,-0.5679,-0.5666,-0.5689,-0.5683,-0.5722,-0.5726,-0.5726,-0.5725,-0.573,-0.5731,-0.5741,-0.5737,-0.5717,-0.5717,-0.5716,-0.5716,0,-0.5612,-0.5605,-0.5646,-0.5649,-0.5651,-0.568,-0.5683,-0.5706,-0.5703,-0.5733,-0.574,-0.5736,-0.5761,-0.5754,-0.5781,-0.5778,-0.5827,-0.5818,-0.5824,-0.5823,-0.5859,-0.5857,-0.5974,-0.5989,-0.5878,-0.5879,-0.588,0,-0.5665,-0.5692,-0.5698,-0.5712,-0.5718,-0.5741,-0.5754,-0.5742,-0.5756,-0.577,-0.5791,-0.5814,-0.5832,-0.5873,-0.5873,-0.5894,-0.5888,-0.5927,-0.5891,-0.5895,-0.5892,-0.5891,-0.5895,-0.5935,-0.5937,-0.5938,-0.5938,0,-0.5759,-0.5754,-0.5774,-0.5792,-0.5808,-0.5822,-0.5835,-0.5848,-0.5836,-0.5853,-0.5878,-0.5892,-0.592,-0.5944,-0.5963,-0.5968,-0.5952,-0.5949,-0.5959,-0.5966,-0.5969,-0.5971,-0.5847,-0.5948,-0.5947,-0.5946,-0.5945,-0.5945,-0.583,-0.5853,-0.5861,-0.5884,-0.5891,-0.5903,-0.5924,-0.5923,-0.5944,-0.5966,-0.5956,-0.5986,-0.5995,-0.6019,-0.6026,-0.6049,-0.6034,-0.6048,-0.6052,-0.6056,-0.6062,-0.5963,-0.6052,-0.6052,-0.6052,-0.6051,-0.6051,0,-0.5926,-0.5929,-0.595,-0.5967,-0.5985,-0.5966,-0.5979,-0.5996,-0.6022,-0.6031,-0.6049,-0.6078,-0.6101,-0.6102,-0.6123,-0.6142,-0.6135,-0.6148,-0.6148,-0.615,-0.6073,-0.6063,-0.6153,-0.6153,-0.6153,-0.6153,-0.6153,-0.6153,-0.5978,-0.6017,-0.6012,-0.6054,-0.6058,-0.6086,-0.6095,-0.6106,-0.6113,-0.6147,-0.6166,-0.6165,-0.6172,-0.6193,-0.6214,-0.6213,-0.6223,-0.624,-0.6237,-0.6165,-0.6155,-0.6146,-0.6137,-0.6241,-0.6241,-0.6313,-0.6314,-0.6314]}]]